QPF
0.04 0.03 0.02 0.01 0.01 0.02 0.02 0.03 0.04 0.04 0.03 0.02 0.02 0.03 0.03 0.03 0.04 0.06 0.06 0.07 0.07 0.08 0.06 0.05 0.03 0.03 0.03 0.03 0.03 0.03 0.03 0.03 0.03 0.02 0.01 0.01 0.01 0.02 0.03 0.03 0.03 0.03 0.03
0.03 0.02 0.02 0.02 0.01 0.02 0.02 0.02 0.03 0.04 0.04 0.03 0.02 0.02 0.02 0.02 0.02 0.02 0.03 0.04 0.04 0.05 0.06 0.06 0.05 0.04 0.04 0.03 0.03 0.03 0.03 0.03 0.03 0.03 0.02 0.01 0.01 0.02 0.02 0.02 0.02 0.03 0.03
0.02 0.01 0.01 0.02 0.02 0.02 0.02 0.03 0.03 0.03 0.03 0.03 0.02 0.02 0.01 0.02 0.01 0.01 0.02 0.02 0.02 0.03 0.03 0.05 0.05 0.06 0.07 0.06 0.05 0.04 0.04 0.03 0.04 0.03 0.02 0.02 0.02 0.01 0.02 0.02 0.02 0.01 0.01
0.01 0.01 0.01 0.01 0.01 0.01 0.02 0.02 0.03 0.03 0.03 0.03 0.02 0.02 0.02 0.02 0.01 0.01 0.01 0.01 0.02 0.03 0.02 0.02 0.03 0.04 0.05 0.07 0.07 0.06 0.05 0.04 0.04 0.04 0.03 0.02 0.02 0.01 0.02 0.02 0.01 0.01 0.01
0.01 0.01 0.02 0.02 0.02 0.02 0.02 0.02 0.03 0.03 0.03 0.03 0.02 0.02 0.02 0.02 0.02 0.02 0.02 0.01 0.01 0.02 0.02 0.03 0.02 0.02 0.04 0.05 0.07 0.07 0.06 0.05 0.04 0.04 0.04 0.04 0.03 0.03 0.02 0.01 0.01 0.01 0.01
0.01 0.01 0.01 0.02 0.02 0.03 0.03 0.03 0.03 0.04 0.03 0.03 0.03 0.03 0.03 0.02 0.02 0.02 0.02 0.01 0.01 0.01 0.01 0.02 0.02 0.03 0.03 0.04 0.05 0.06 0.06 0.06 0.05 0.04 0.04 0.03 0.04 0.04 0.03 0.02 0.01 0.02 0.01
0.02 0.01 0.01 0.01 0.02 0.02 0.03 0.04 0.04 0.05 0.05 0.05 0.04 0.04 0.03 0.03 0.03 0.02 0.02 0.01 0.01 0.01 0.01 0.01 0.01 0.02 0.02 0.03 0.04 0.04 0.05 0.04 0.04 0.04 0.04 0.03 0.02 0.03 0.04 0.03 0.03 0.02 0.01
0.02 0.02 0.01 0.01 0.01 0.02 0.02 0.03 0.04 0.05 0.05 0.05 0.04 0.04 0.04 0.03 0.03 0.02 0.02 0.01 0.01 0.01 0.01 0.01 0.01 0.01 0.02 0.02 0.03 0.04 0.04 0.04 0.03 0.03 0.03 0.03 0.02 0.02 0.03 0.03 0.03 0.03 0.03
0.01 0.02 0.01 0.01 0.01 0.02 0.02 0.02 0.03 0.03 0.04 0.04 0.04 0.04 0.03 0.03 0.03 0.03 0.02 0.02 0.01 0.01 0.01 0.01 0.01 0.01 0.01 0.02 0.03 0.03 0.03 0.03 0.03 0.03 0.03 0.03 0.03 0.03 0.04 0.04 0.04 0.05 0.04
0.01 0.01 0.02 0.01 0.01 0.02 0.02 0.02 0.02 0.03 0.03 0.03 0.03 0.02 0.02 0.02 0.02 0.02 0.02 0.02 0.02 0.01 0.01 0.01 0.01 0.01 0.01 0.01 0.02 0.02 0.03 0.03 0.03 0.03 0.03 0.03 0.03 0.03 0.05 0.05 0.05 0.06 0.05
0.01 0.01 0.02 0.02 0.02 0.02 0.02 0.02 0.02 0.02 0.02 0.02 0.02 0.02 0.02 0.02 0.02 0.02 0.01 0.01 0.01 0.01 0.01 0.01 0.01 0.02 0.02 0.02 0.02 0.02 0.02 0.03 0.03 0.04 0.04 0.04 0.03 0.03 0.03 0.04 0.04 0.05 0.06
0.01 0.02 0.02 0.02 0.02 0.02 0.02 0.02 0.02 0.02 0.02 0.02 0.02 0.02 0.02 0.02 0.02 0.02 0.02 0.01 0.01 0.02 0.02 0.01 0.02 0.02 0.02 0.02 0.02 0.02 0.02 0.02 0.03 0.04 0.05 0.04 0.04 0.03 0.02 0.03 0.03 0.03 0.03
0.01 0.02 0.02 0.02 0.02 0.02 0.02 0.02 0.02 0.02 0.02 0.02 0.02 0.02 0.02 0.01 0.02 0.02 0.02 0.01 0.01 0.02 0.02 0.02 0.02 0.02 0.01 0.02 0.02 0.02 0.02 0.02 0.02 0.02 0.02 0.02 0.02 0.02 0.02 0.03 0.03 0.04 0.05
0.02 0.02 0.02 0.02 0.02 0.01 0.01 0.02 0.02 0.02 0.02 0.02 0.01 0.01 0.01 0.01 0.01 0.01 0.01 0.01 0.02 0.02 0.02 0.02 0.01 0.01 0.01 0.01 0.01 0.01 0.01 0.01 0.01 0.01 0.01 0.01 0.01 0.01 0.02 0.03 0.03 0.04 0.05
0.02 0.02 0.02 0.02 0.02 0.02 0.01 0.02 0.02 0.02 0.02 0.02 0.02 0.02 0.02 0.02 0.01 0.01 0.02 0.02 0.02 0.01 0.02 0.02 0.02 0.01 0.01 0.01 0.01 0.01 0.01 0.01 0.01 0.01 0.02 0.02 0.02 0.02 0.02 0.02 0.03 0.04 0.04
0.01 0.01 0.01 0.01 0.01 0.01 0.01 0.02 0.02 0.02 0.02 0.02 0.02 0.02 0.02 0.02 0.02 0.02 0.02 0.02 0.02 0.02 0.03 0.03 0.02 0.01 0.01 0.01 0.01 0.01 0.01 0.01 0.01 0.01 0.02 0.02 0.02 0.02 0.02 0.02 0.02 0.03 0.03
0.01 0.01 0.01 0.01 0.01 0.01 0.01 0.01 0.02 0.02 0.02 0.02 0.02 0.02 0.02 0.02 0.02 0.02 0.02 0.02 0.02 0.03 0.03 0.02 0.02 0.01 0.01 0.01 0.01 0.01 0.01 0.01 0.01 0.01 0.02 0.02 0.02 0.02 0.02 0.02 0.02 0.03 0.03
0.01 0.01 0.02 0.02 0.02 0.02 0.02 0.02 0.02 0.02 0.02 0.02 0.02 0.02 0.01 0.01 0.01 0.01 0.01 0.02 0.03 0.02 0.02 0.01 0.01 0.01 0.01 0.01 0.01 0.01 0.01 0.01 0.01 0.01 0.02 0.02 0.02 0.02 0.02 0.02 0.02 0.03 0.03
0.01 0.01 0.02 0.02 0.02 0.02 0.02 0.02 0.02 0.02 0.02 0.02 0.02 0.02 0.02 0.01 0.01 0.01 0.01 0.02 0.02 0.01 0.01 0.01 0.01 0.01 0.01 0.01 0.01 0.01 0.01 0.01 0.01 0.01 0.01 0.02 0.02 0.02 0.02 0.02 0.02 0.02 0.03
0.02 0.02 0.02 0.02 0.02 0.02 0.02 0.02 0.03 0.03 0.03 0.02 0.02 0.02 0.02 0.02 0.02 0.02 0.01 0.01 0.01 0.01 0.01 0.01 0.01 0.01 0.01 0.01 0.01 0.01 0.01 0.01 0.01 0.01 0.01 0.01 0.02 0.02 0.02 0.02 0.02 0.03 0.03
0.02 0.03 0.03 0.03 0.03 0.03 0.03 0.03 0.03 0.03 0.03 0.03 0.02 0.02 0.02 0.02 0.02 0.01 0.01 0.01 0.01 0.01 0.01 0.01 0.01 0.01 0.01 0.02 0.02 0.01 0.01 0.01 0.01 0.01 0.01 0.01 0.01 0.02 0.02 0.02 0.02 0.02 0.02
0.03 0.03 0.03 0.03 0.03 0.03 0.03 0.03 0.03 0.03 0.02 0.02 0.02 0.02 0.02 0.02 0.02 0.01 0.01 0.01 0.01 0.01 0.01 0.01 0.02 0.02 0.02 0.02 0.02 0.02 0.01 0.01 0.01 0.01 0.02 0.02 0.02 0.02 0.02 0.02 0.02 0.02 0.02
0.03 0.03 0.03 0.03 0.03 0.03 0.03 0.03 0.03 0.03 0.03 0.02 0.02 0.02 0.02 0.02 0.02 0.01 0.01 0.01 0.01 0.01 0.01 0.01 0.01 0.01 0.01 0.01 0.02 0.02 0.02 0.02 0.01 0.02 0.02 0.02 0.02 0.02 0.02 0.02 0.02 0.02 0.02
0.02 0.02 0.03 0.03 0.03 0.03 0.03 0.03 0.03 0.02 0.02 0.02 0.02 0.02 0.02 0.02 0.01 0.01 0.01 0.01 0.01 0.01 0.01 0.01 0.01 0.01 0.01 0.01 0.01 0.01 0.02 0.02 0.02 0.02 0.02 0.02 0.02 0.02 0.02 0.02 0.02 0.02 0.02
0.02 0.02 0.02 0.02 0.02 0.02 0.02 0.02 0.02 0.02 0.02 0.02 0.02 0.02 0.01 0.01 0.01 0.01 0.01 0.01 0.01 0.01 0.01 0.01 0.01 0.01 0.01 0.01 0.01 0.01 0.01 0.02 0.02 0.02 0.02 0.02 0.02 0.02 0.02 0.02 0.02 0.03 0.03
0.02 0.02 0.02 0.02 0.02 0.02 0.02 0.02 0.02 0.02 0.02 0.01 0.01 0.01 0.01 0.01 0.01 0.01 0.01 0.01 0.01 0.01 0.01 0.01 0.01 0.01 0.01 0.01 0.01 0.01 0.01 0.02 0.02 0.02 0.03 0.03 0.03 0.02 0.02 0.02 0.03 0.03 0.03
MSLP
1028.92 1028.65 1028.34 1028.01 1027.69 1027.39 1027.15 1026.97 1026.85 1026.80 1026.80 1026.82 1026.85 1026.88 1026.90 1026.91 1026.93 1026.96 1027.01 1027.11 1027.25 1027.42 1027.61 1027.82 1028.02 1028.20 1028.36 1028.49 1028.60 1028.70 1028.80 1028.91 1029.03 1029.17 1029.31 1029.44 1029.57 1029.67 1029.76 1029.82 1029.87 1029.92 1029.97
1029.40 1029.14 1028.84 1028.53 1028.23 1027.94 1027.70 1027.51 1027.37 1027.27 1027.20 1027.14 1027.09 1027.03 1026.97 1026.92 1026.89 1026.88 1026.92 1026.99 1027.12 1027.27 1027.45 1027.64 1027.82 1027.99 1028.13 1028.27 1028.39 1028.51 1028.65 1028.80 1028.97 1029.15 1029.33 1029.51 1029.66 1029.78 1029.87 1029.94 1029.98 1030.02 1030.06
1029.88 1029.60 1029.29 1028.99 1028.69 1028.41 1028.17 1027.97 1027.80 1027.65 1027.53 1027.40 1027.28 1027.16 1027.04 1026.95 1026.88 1026.85 1026.87 1026.94 1027.05 1027.20 1027.36 1027.53 1027.68 1027.83 1027.96 1028.09 1028.21 1028.36 1028.52 1028.70 1028.91 1029.13 1029.34 1029.54 1029.72 1029.86 1029.96 1030.03 1030.08 1030.12 1030.17
1030.32 1030.01 1029.68 1029.36 1029.05 1028.78 1028.53 1028.32 1028.13 1027.96 1027.79 1027.62 1027.45 1027.28 1027.13 1027.01 1026.93 1026.89 1026.91 1026.97 1027.08 1027.21 1027.35 1027.50 1027.63 1027.75 1027.86 1027.97 1028.09 1028.24 1028.41 1028.61 1028.83 1029.07 1029.31 1029.53 1029.72 1029.87 1029.99 1030.08 1030.15 1030.21 1030.27
1030.69 1030.35 1030.01 1029.67 1029.35 1029.08 1028.83 1028.61 1028.41 1028.22 1028.03 1027.83 1027.64 1027.45 1027.28 1027.15 1027.06 1027.02 1027.04 1027.10 1027.20 1027.32 1027.44 1027.56 1027.66 1027.75 1027.84 1027.93 1028.03 1028.16 1028.33 1028.53 1028.75 1028.99 1029.22 1029.45 1029.64 1029.81 1029.95 1030.07 1030.17 1030.27 1030.38
1031.00 1030.64 1030.28 1029.94 1029.63 1029.36 1029.12 1028.91 1028.71 1028.51 1028.31 1028.11 1027.90 1027.70 1027.52 1027.39 1027.29 1027.26 1027.27 1027.33 1027.41 1027.51 1027.61 1027.70 1027.78 1027.84 1027.90 1027.96 1028.05 1028.16 1028.31 1028.49 1028.69 1028.91 1029.13 1029.34 1029.54 1029.71 1029.87 1030.02 1030.16 1030.32 1030.49
1031.24 1030.89 1030.54 1030.21 1029.92 1029.67 1029.45 1029.26 1029.07 1028.88 1028.68 1028.48 1028.26 1028.06 1027.88 1027.74 1027.64 1027.59 1027.60 1027.64 1027.71 1027.79 1027.86 1027.93 1027.98 1028.01 1028.05 1028.10 1028.16 1028.25 1028.38 1028.53 1028.71 1028.90 1029.09 1029.28 1029.47 1029.64 1029.81 1029.99 1030.17 1030.38 1030.61
1031.41 1031.10 1030.79 1030.50 1030.26 1030.05 1029.86 1029.70 1029.53 1029.36 1029.16 1028.96 1028.74 1028.53 1028.35 1028.19 1028.08 1028.02 1028.00 1028.02 1028.07 1028.12 1028.18 1028.22 1028.26 1028.28 1028.31 1028.35 1028.41 1028.49 1028.60 1028.73 1028.88 1029.04 1029.20 1029.36 1029.52 1029.68 1029.85 1030.04 1030.25 1030.50 1030.78
1031.51 1031.27 1031.03 1030.81 1030.63 1030.47 1030.33 1030.20 1030.06 1029.90 1029.72 1029.52 1029.31 1029.09 1028.90 1028.73 1028.60 1028.52 1028.48 1028.47 1028.49 1028.52 1028.55 1028.59 1028.62 1028.65 1028.69 1028.73 1028.80 1028.89 1028.99 1029.12 1029.25 1029.38 1029.52 1029.64 1029.77 1029.91 1030.06 1030.24 1030.45 1030.71 1031.00
1031.54 1031.39 1031.24 1031.11 1030.99 1030.89 1030.80 1030.71 1030.60 1030.46 1030.29 1030.10 1029.89 1029.67 1029.47 1029.29 1029.15 1029.05 1028.99 1028.96 1028.96 1028.97 1029.00 1029.03 1029.07 1029.12 1029.18 1029.25 1029.35 1029.46 1029.58 1029.71 1029.84 1029.96 1030.07 1030.16 1030.26 1030.35 1030.47 1030.61 1030.79 1031.02 1031.29
1031.49 1031.44 1031.38 1031.33 1031.28 1031.24 1031.20 1031.14 1031.05 1030.94 1030.79 1030.61 1030.41 1030.21 1030.01 1029.84 1029.69 1029.58 1029.51 1029.47 1029.46 1029.47 1029.50 1029.55 1029.61 1029.68 1029.78 1029.89 1030.02 1030.17 1030.32 1030.47 1030.61 1030.73 1030.82 1030.89 1030.95 1031.00 1031.06 1031.15 1031.27 1031.43 1031.65
1031.35 1031.38 1031.40 1031.42 1031.44 1031.44 1031.44 1031.41 1031.35 1031.26 1031.13 1030.97 1030.80 1030.62 1030.45 1030.30 1030.18 1030.08 1030.02 1029.99 1029.99 1030.01 1030.05 1030.11 1030.20 1030.31 1030.44 1030.60 1030.77 1030.96 1031.15 1031.32 1031.48 1031.61 1031.69 1031.75 1031.77 1031.78 1031.79 1031.81 1031.85 1031.94 1032.07
1031.11 1031.21 1031.29 1031.36 1031.42 1031.46 1031.48 1031.47 1031.43 1031.36 1031.26 1031.14 1031.01 1030.88 1030.75 1030.64 1030.56 1030.50 1030.48 1030.47 1030.49 1030.54 1030.60 1030.69 1030.80 1030.94 1031.10 1031.29 1031.50 1031.73 1031.95 1032.16 1032.34 1032.48 1032.57 1032.62 1032.63 1032.60 1032.56 1032.52 1032.49 1032.50 1032.54
1030.80 1030.94 1031.05 1031.15 1031.23 1031.29 1031.32 1031.33 1031.30 1031.26 1031.19 1031.11 1031.02 1030.94 1030.88 1030.83 1030.81 1030.81 1030.83 1030.87 1030.93 1031.01 1031.09 1031.21 1031.34 1031.50 1031.69 1031.90 1032.13 1032.38 1032.63 1032.86 1033.06 1033.23 1033.34 1033.39 1033.40 1033.37 1033.30 1033.22 1033.14 1033.08 1033.05
1030.45 1030.60 1030.73 1030.84 1030.92 1030.98 1031.01 1031.02 1031.01 1030.98 1030.94 1030.89 1030.86 1030.84 1030.83 1030.85 1030.89 1030.96 1031.04 1031.13 1031.23 1031.34 1031.46 1031.60 1031.75 1031.92 1032.11 1032.33 1032.58 1032.83 1033.09 1033.34 1033.57 1033.75 1033.89 1033.97 1034.00 1033.98 1033.92 1033.83 1033.73 1033.64 1033.56
1030.11 1030.26 1030.39 1030.49 1030.57 1030.61 1030.64 1030.64 1030.63 1030.60 1030.58 1030.56 1030.56 1030.58 1030.63 1030.70 1030.80 1030.92 1031.06 1031.20 1031.35 1031.49 1031.64 1031.80 1031.96 1032.14 1032.33 1032.55 1032.79 1033.04 1033.30 1033.56 1033.80 1034.01 1034.19 1034.31 1034.38 1034.40 1034.38 1034.33 1034.25 1034.16 1034.07
1029.83 1029.97 1030.09 1030.17 1030.24 1030.27 1030.28 1030.27 1030.24 1030.21 1030.18 1030.17 1030.19 1030.23 1030.30 1030.41 1030.55 1030.71 1030.88 1031.06 1031.25 1031.43 1031.61 1031.78 1031.96 1032.14 1032.34 1032.55 1032.78 1033.02 1033.28 1033.54 1033.80 1034.04 1034.25 1034.42 1034.55 1034.63 1034.67 1034.68 1034.65 1034.61 1034.55
1029.62 1029.75 1029.86 1029.93 1029.98 1030.00 1029.99 1029.95 1029.90 1029.85 1029.81 1029.78 1029.78 1029.82 1029.89 1030.00 1030.15 1030.32 1030.52 1030.73 1030.94 1031.15 1031.36 1031.55 1031.75 1031.94 1032.15 1032.36 1032.59 1032.83 1033.08 1033.35 1033.62 1033.88 1034.13 1034.35 1034.54 1034.69 1034.81 1034.89 1034.94 1034.96 1034.96
1029.49 1029.61 1029.71 1029.77 1029.80 1029.80 1029.77 1029.71 1029.63 1029.55 1029.47 1029.41 1029.38 1029.38 1029.42 1029.51 1029.64 1029.81 1030.01 1030.23 1030.46 1030.70 1030.93 1031.16 1031.38 1031.60 1031.82 1032.04 1032.28 1032.52 1032.78 1033.05 1033.33 1033.61 1033.89 1034.16 1034.41 1034.63 1034.82 1034.98 1035.10 1035.20 1035.26
1029.40 1029.51 1029.59 1029.65 1029.66 1029.64 1029.59 1029.50 1029.40 1029.28 1029.16 1029.05 1028.97 1028.93 1028.93 1028.97 1029.07 1029.22 1029.41 1029.63 1029.87 1030.13 1030.39 1030.65 1030.91 1031.17 1031.42 1031.66 1031.92 1032.17 1032.44 1032.72 1033.01 1033.30 1033.60 1033.90 1034.19 1034.46 1034.71 1034.93 1035.12 1035.28 1035.40
1029.30 1029.39 1029.45 1029.48 1029.48 1029.44 1029.37 1029.26 1029.13 1028.98 1028.83 1028.68 1028.55 1028.46 1028.41 1028.42 1028.48 1028.60 1028.77 1028.99 1029.24 1029.52 1029.81 1030.11 1030.41 1030.70 1030.99 1031.27 1031.54 1031.82 1032.10 1032.38 1032.67 1032.97 1033.28 1033.59 1033.90 1034.19 1034.48 1034.74 1034.98 1035.18 1035.35
1029.14 1029.18 1029.21 1029.21 1029.19 1029.13 1029.04 1028.91 1028.77 1028.60 1028.42 1028.25 1028.10 1027.97 1027.89 1027.87 1027.91 1028.00 1028.16 1028.37 1028.64 1028.93 1029.25 1029.58 1029.91 1030.24 1030.56 1030.87 1031.17 1031.46 1031.75 1032.04 1032.33 1032.62 1032.92 1033.23 1033.53 1033.83 1034.13 1034.40 1034.66 1034.90 1035.10
1028.87 1028.85 1028.82 1028.78 1028.73 1028.65 1028.54 1028.41 1028.26 1028.09 1027.92 1027.74 1027.59 1027.46 1027.37 1027.34 1027.37 1027.46 1027.62 1027.83 1028.10 1028.40 1028.74 1029.09 1029.45 1029.80 1030.14 1030.47 1030.78 1031.08 1031.37 1031.65 1031.93 1032.21 1032.49 1032.78 1033.06 1033.35 1033.64 1033.92 1034.18 1034.43 1034.65
1028.49 1028.39 1028.30 1028.21 1028.11 1028.00 1027.88 1027.75 1027.61 1027.46 1027.30 1027.16 1027.02 1026.92 1026.86 1026.85 1026.89 1026.99 1027.15 1027.37 1027.64 1027.95 1028.29 1028.64 1029.00 1029.36 1029.70 1030.03 1030.34 1030.63 1030.91 1031.18 1031.44 1031.70 1031.96 1032.22 1032.49 1032.75 1033.02 1033.29 1033.55 1033.80 1034.03
1028.05 1027.87 1027.70 1027.55 1027.41 1027.27 1027.14 1027.01 1026.88 1026.75 1026.63 1026.53 1026.44 1026.38 1026.36 1026.39 1026.46 1026.58 1026.76 1026.99 1027.26 1027.56 1027.89 1028.22 1028.56 1028.90 1029.22 1029.53 1029.81 1030.09 1030.34 1030.59 1030.83 1031.07 1031.31 1031.55 1031.79 1032.04 1032.30 1032.55 1032.81 1033.05 1033.29
1027.63 1027.37 1027.13 1026.92 1026.73 1026.55 1026.40 1026.27 1026.15 1026.05 1025.97 1025.90 1025.87 1025.86 1025.89 1025.97 1026.08 1026.23 1026.43 1026.66 1026.92 1027.21 1027.51 1027.81 1028.11 1028.40 1028.68 1028.95 1029.20 1029.44 1029.66 1029.89 1030.10 1030.32 1030.55 1030.77 1031.01 1031.25 1031.49 1031.74 1031.99 1032.24 1032.48
Thickness
5431 5432 5432 5432 5432 5432 5432 5434 5435 5434 5434 5435 5435 5436 5437 5437 5438 5440 5441 5442 5443 5445 5446 5448 5449 5450 5450 5451 5452 5453 5453 5453 5452 5453 5453 5453 5453 5453 5454 5454 5454 5454 5454
5419 5419 5419 5419 5419 5419 5420 5421 5422 5422 5422 5423 5423 5423 5424 5425 5426 5427 5428 5429 5430 5431 5433 5434 5435 5436 5437 5437 5438 5439 5440 5440 5439 5439 5439 5439 5439 5440 5440 5440 5439 5440 5440
5407 5407 5407 5407 5407 5407 5408 5409 5409 5410 5410 5411 5411 5411 5412 5412 5413 5414 5415 5416 5417 5418 5419 5420 5421 5422 5423 5423 5424 5425 5426 5427 5427 5426 5426 5426 5426 5426 5426 5426 5426 5426 5426
5395 5395 5395 5395 5395 5396 5396 5397 5397 5398 5398 5398 5399 5399 5399 5400 5401 5402 5402 5403 5404 5405 5406 5406 5407 5408 5409 5410 5411 5411 5412 5412 5412 5412 5412 5412 5411 5411 5412 5412 5412 5411 5411
5384 5384 5384 5384 5384 5384 5384 5384 5385 5385 5385 5386 5386 5386 5387 5388 5389 5389 5390 5390 5391 5392 5393 5393 5394 5395 5397 5397 5398 5398 5398 5397 5397 5398 5399 5398 5397 5397 5398 5398 5397 5397 5397
5372 5372 5372 5372 5372 5372 5372 5372 5373 5372 5372 5373 5374 5374 5375 5376 5377 5378 5377 5377 5378 5379 5380 5381 5382 5383 5384 5385 5386 5386 5386 5385 5385 5385 5386 5386 5386 5385 5384 5384 5383 5383 5383
5360 5360 5360 5361 5361 5360 5361 5361 5360 5360 5360 5360 5361 5362 5363 5363 5364 5365 5365 5365 5366 5367 5368 5368 5369 5370 5371 5371 5372 5372 5373 5373 5373 5373 5372 5373 5372 5373 5372 5371 5370 5369 5370
5348 5348 5348 5348 5348 5349 5348 5348 5347 5347 5347 5348 5349 5350 5351 5351 5352 5353 5353 5352 5353 5353 5354 5356 5356 5357 5357 5358 5358 5358 5359 5360 5361 5361 5362 5361 5360 5359 5358 5358 5356 5356 5357
5336 5336 5335 5335 5336 5336 5335 5335 5334 5335 5335 5336 5337 5338 5338 5339 5339 5340 5339 5339 5339 5339 5340 5342 5342 5344 5344 5345 5346 5346 5346 5346 5346 5347 5347 5347 5347 5346 5345 5344 5343 5342 5344
5323 5323 5322 5322 5322 5322 5322 5322 5322 5322 5323 5324 5325 5325 5325 5326 5326 5327 5326 5326 5326 5326 5327 5328 5330 5331 5331 5331 5332 5332 5333 5333 5333 5333 5334 5333 5333 5332 5331 5330 5329 5328 5329
5310 5310 5309 5309 5309 5309 5309 5310 5309 5310 5310 5310 5311 5312 5312 5313 5313 5314 5313 5313 5313 5313 5314 5315 5316 5317 5318 5318 5319 5320 5321 5320 5320 5320 5320 5320 5319 5318 5317 5316 5315 5315 5315
5296 5296 5296 5296 5296 5296 5296 5296 5296 5297 5297 5297 5297 5298 5298 5299 5300 5300 5300 5300 5300 5300 5301 5302 5302 5303 5304 5306 5306 5307 5307 5307 5306 5305 5306 5306 5305 5304 5303 5302 5302 5302 5303
5282 5282 5282 5282 5282 5283 5283 5283 5283 5283 5283 5284 5284 5284 5285 5285 5286 5287 5286 5287 5287 5287 5288 5289 5289 5290 5291 5292 5292 5292 5292 5292 5291 5291 5291 5292 5291 5290 5289 5289 5289 5289 5290
5269 5268 5269 5269 5269 5269 5270 5270 5270 5270 5270 5270 5270 5270 5270 5271 5271 5272 5272 5272 5273 5274 5274 5274 5275 5276 5276 5277 5277 5277 5277 5276 5276 5276 5276 5276 5275 5275 5275 5275 5275 5276 5276
5256 5256 5256 5257 5257 5256 5257 5256 5257 5257 5257 5258 5257 5257 5258 5258 5259 5260 5260 5260 5260 5260 5260 5260 5260 5260 5260 5260 5260 5260 5260 5260 5260 5260 5260 5260 5260 5261 5262 5262 5262 5262 5262
5244 5244 5243 5244 5244 5244 5244 5244 5244 5245 5246 5246 5246 5247 5247 5247 5247 5248 5248 5248 5249 5248 5247 5247 5246 5245 5245 5245 5245 5244 5244 5244 5244 5244 5245 5245 5246 5247 5248 5248 5248 5248 5249
5230 5230 5230 5231 5232 5232 5231 5231 5231 5232 5233 5233 5234 5235 5235 5236 5235 5235 5235 5235 5235 5234 5232 5232 5231 5230 5230 5229 5229 5228 5228 5229 5229 5229 5230 5231 5231 5232 5233 5234 5235 5236 5237
5217 5218 5219 5219 5219 5219 5219 5219 5218 5219 5219 5219 5221 5222 5223 5223 5223 5222 5222 5221 5220 5219 5217 5216 5216 5215 5215 5214 5214 5213 5213 5214 5214 5215 5215 5216 5217 5218 5220 5221 5222 5223 5224
5205 5205 5206 5206 5207 5207 5207 5207 5206 5206 5206 5207 5207 5208 5209 5209 5209 5209 5208 5207 5205 5204 5203 5202 5201 5201 5200 5200 5199 5199 5200 5200 5200 5200 5201 5202 5204 5205 5207 5208 5210 5212 5213
5193 5194 5195 5195 5195 5195 5194 5194 5194 5194 5194 5194 5195 5196 5196 5196 5196 5195 5194 5193 5192 5191 5190 5189 5188 5188 5188 5187 5187 5186 5186 5187 5187 5188 5189 5190 5191 5193 5194 5196 5198 5200 5202
5182 5182 5183 5183 5183 5183 5183 5182 5182 5182 5182 5182 5183 5184 5186 5186 5184 5183 5182 5180 5179 5178 5178 5177 5176 5176 5176 5175 5175 5175 5174 5175 5175 5176 5177 5178 5179 5181 5183 5185 5187 5189 5191
5172 5171 5171 5172 5172 5172 5171 5171 5171 5170 5170 5171 5172 5172 5174 5173 5172 5171 5170 5169 5168 5167 5166 5166 5166 5165 5165 5164 5164 5164 5164 5164 5165 5165 5166 5167 5168 5170 5172 5174 5176 5178 5179
5163 5162 5162 5161 5161 5162 5161 5159 5159 5159 5159 5160 5161 5161 5160 5160 5160 5159 5158 5158 5157 5156 5156 5156 5155 5155 5155 5155 5155 5155 5155 5155 5155 5156 5156 5157 5158 5160 5162 5163 5165 5167 5169
5154 5153 5152 5151 5151 5150 5150 5149 5149 5149 5149 5150 5150 5150 5149 5149 5148 5148 5147 5147 5147 5147 5147 5146 5146 5146 5146 5146 5146 5147 5147 5147 5147 5148 5148 5148 5149 5151 5153 5155 5156 5158 5160
5145 5144 5142 5141 5140 5139 5139 5139 5139 5139 5139 5140 5140 5139 5139 5138 5138 5138 5138 5138 5138 5138 5138 5138 5138 5138 5139 5139 5139 5139 5140 5141 5142 5142 5142 5142 5143 5144 5145 5147 5148 5150 5152
5135 5134 5132 5131 5130 5129 5129 5129 5129 5129 5129 5130 5130 5130 5129 5129 5129 5129 5129 5130 5130 5130 5131 5131 5131 5131 5132 5132 5133 5134 5135 5136 5136 5137 5137 5138 5138 5139 5139 5140 5141 5143 5145